Location: North Evanston
(42.0634°N, 87.6976°W)
Time: 14:02:00
(UTC+00:00)

Injun/Solrad 3 - Pass Details

Date: 15 May 2026
Orbit: 867 x 989 km, 66.8° (Epoch: 7 June)

Event Time Altitude Azimuth Distance (km) Brightness Sun altitude
Rises 07:18:05 0° 322° (NW) 3,690 11.4 -25.5°
Reaches altitude 10° 07:20:50 10° 314° (NW) 2,747 10.6 -25.3°
Enters shadow 07:25:58 35° 263° (W) 1,530 8.7 -24.9°
Maximum altitude 07:26:37 36° 250° (WSW) 1,507 - -24.9°
Drops below altitude 10° 07:32:24 10° 186° (S) 2,732 - -24.4°
Sets 07:35:08 0° 178° (S) 3,668 - -24.1°
